Voltar ao catálogo

POLYTECH-UNIVERS-6

AtivoCiênciaSSO
NORAD 67272·PAYLOAD·🇷🇺 Russia
Este nome de satélite ainda não foi confirmado por fontes oficiais.

Lançado Dec 28, 2025 de Vostochny Cosmodrome

Loading…

Próximas Passagens (próximas 24 horas)

TLE

AtualizadoSource: Space-Track

Época: Sep 14, 2026, 10:53 UTC

1 67272U 25313AA  26257.45354737  .00008182  00000-0  32647-3 0  9992
2 67272  97.3860 331.0836 0014922  55.0526 305.2111 15.25330006 39565

Acompanhe POLYTECH-UNIVERS-6 em tempo real com AllMySat

Download on the App Store